[[{"header":{"parameterUnit":"m.s-1","parameterCategory":1,"la1":30.2991,"la2":30.254,"lo1":-89.0895,"lo2":-89.0444,"dy":0.0017,"dx":0.0017,"nx":28,"ny":28,"refTime":"2023-10-17T03:00:00:Z","depth":0,"parameterNumber":2,"parameterNumberName":"U-component_of_WINDS"},"data":[0,0,0,0,0,0,0,0,0,0,0,0,0,0,0,0,0,0,0,0,0,0,0,0,0,0,0,0,0,0,0,0,0,0,0,0,0,0,0,0,0,0,0,0,0,0,0,0,0,0,0,0,0,0,0,0,0,0,-0.5488,-0.5488,0,-0.5433,-0.5432,-0.5431,-0.5372,-0.5371,-0.537,-0.5369,-0.5312,-0.5311,-0.531,0,0,0,0,0,0,0,0,0,0,0,0,0,-0.5542,-0.5541,-0.5488,-0.5488,-0.5487,-0.5433,-0.5432,-0.5431,-0.5372,-0.5371,-0.537,-0.5369,-0.5312,-0.5311,-0.531,0,0,0,0,0,0,0,0,0,0,0,0,0,-0.5506,-0.5541,-0.5488,-0.5451,-0.5447,-0.5433,-0.5432,-0.5431,-0.5372,-0.5371,-0.537,-0.5368,-0.5312,-0.5311,-0.531,-0.5328,0,0,-0.5306,-0.5306,0,0,0,0,0,0,0,0,-0.5508,-0.5504,-0.5457,-0.5453,-0.5449,-0.5408,-0.543,-0.5397,-0.5372,-0.54,-0.5369,-0.5368,-0.5345,-0.5341,-0.5333,-0.5326,-0.5323,-0.5306,-0.5306,-0.5305,-0.5305,0,0,0,0,0,0,0,-0.551,-0.5506,-0.5466,-0.5456,-0.5451,-0.5436,-0.543,-0.5423,-0.538,-0.5398,-0.5393,-0.5388,-0.5342,-0.5334,-0.5331,-0.5322,-0.5306,-0.5305,-0.5305,-0.5304,-0.5328,-0.5329,0,0,0,0,0,0,-0.5519,-0.5508,-0.5468,-0.5465,-0.5476,-0.5436,-0.5429,-0.5422,-0.538,-0.5373,-0.5389,-0.5385,-0.5337,-0.5333,-0.5329,-0.5348,-0.5305,-0.5304,-0.5303,-0.5326,-0.5328,-0.5329,0,0,0,0,0,0,-0.552,-0.5516,-0.547,-0.5485,-0.5478,-0.5437,-0.543,-0.5422,-0.5414,-0.5373,-0.5365,-0.5389,-0.5336,-0.5331,-0.5329,-0.5345,-0.5304,-0.5303,-0.5325,-0.5327,-0.5329,-0.5387,0,0,0,0,0,0,-0.5522,-0.5517,-0.5523,-0.5486,-0.5478,-0.5472,-0.5431,-0.5422,-0.5412,-0.5407,-0.5371,-0.5364,-0.5334,-0.5331,-0.5328,-0.5343,-0.5302,-0.5323,-0.5326,-0.5328,-0.5383,-0.5391,-0.5397,0,0,0,0,0,-0.5524,-0.5542,-0.5524,-0.552,-0.5485,-0.5473,-0.5468,-0.5434,-0.5414,-0.542,-0.5394,-0.5365,-0.5344,-0.5331,-0.5327,-0.5342,-0.5322,-0.5325,-0.5328,-0.538,-0.5389,-0.5397,0,0,0,0,0,0,-0.5582,-0.5536,-0.5516,-0.5522,-0.5502,-0.5463,-0.547,-0.5444,-0.5429,-0.5424,-0.5382,-0.5374,-0.5378,-0.536,-0.5347,-0.5358,-0.5329,-0.5331,-0.537,-0.5378,-0.5385,-0.5389,-0.5301,0,0,0,0,0,-0.5595,-0.5589,-0.5549,-0.5559,-0.5549,-0.5512,-0.5505,-0.548,-0.5457,-0.5448,-0.5422,-0.5401,-0.5389,-0.5383,-0.537,-0.538,-0.5372,-0.5389,-0.5395,-0.5401,-0.5404,-0.5408,-0.5415,-0.5339,-0.5339,-0.5339,0,0,-0.5623,-0.5597,-0.5596,-0.557,-0.5551,-0.5545,-0.5505,-0.55,-0.5496,-0.5447,-0.5445,-0.5425,-0.5398,-0.5403,-0.5404,-0.5388,-0.5423,-0.5405,-0.541,-0.5409,-0.5412,-0.5419,-0.5426,-0.5341,-0.5341,-0.534,0,0,-0.5671,-0.5651,-0.5656,-0.5639,-0.5611,-0.5586,-0.5587,-0.5552,-0.5537,-0.5534,-0.5498,-0.5491,-0.5473,-0.5455,-0.5444,-0.5486,-0.5459,-0.5483,-0.5518,-0.5523,-0.5529,-0.5534,-0.555,-0.5556,-0.5485,-0.5485,-0.5486,0,-0.5709,-0.5699,-0.5662,-0.5661,-0.565,-0.5606,-0.5612,-0.5596,-0.5566,-0.556,-0.5543,-0.5518,-0.5497,-0.5498,-0.5508,-0.55,-0.5501,-0.5487,-0.5531,-0.5536,-0.554,-0.5555,-0.556,-0.5489,-0.5488,-0.5488,-0.5488,0,-0.5747,-0.5741,-0.5749,-0.5722,-0.5712,-0.5714,-0.5677,-0.5672,-0.5648,-0.5625,-0.5622,-0.5595,-0.5576,-0.5575,-0.5551,-0.5572,-0.5563,-0.5539,-0.5509,-0.5551,-0.5564,-0.5569,-0.5493,-0.5492,-0.5491,-0.549,0,0,-0.583,-0.5782,-0.5786,-0.5773,-0.574,-0.5734,-0.5734,-0.5716,-0.5713,-0.5693,-0.5692,-0.5677,-0.5655,-0.5643,-0.5617,-0.5621,-0.5657,-0.5597,-0.5595,-0.5609,-0.5678,-0.5697,-0.5704,-0.5638,-0.5639,-0.564,-0.5681,0,-0.5872,-0.587,-0.5837,-0.5844,-0.5838,-0.5796,-0.5796,-0.5776,-0.5754,-0.5745,-0.5721,-0.5712,-0.5683,-0.5675,-0.5677,-0.5652,-0.567,-0.5648,-0.5637,-0.5637,-0.5646,-0.571,-0.573,-0.577,-0.5685,-0.5686,-0.5687,0,-0.5921,-0.5905,-0.5912,-0.5879,-0.5875,-0.5876,-0.5857,-0.5849,-0.5825,-0.5809,-0.5795,-0.5766,-0.5764,-0.5735,-0.5731,-0.5717,-0.5711,-0.5697,-0.5698,-0.5696,-0.5665,-0.5711,-0.5782,-0.5788,-0.5694,-0.5694,-0.5693,0,-0.5981,-0.5962,-0.5963,-0.5953,-0.5915,-0.5916,-0.59,-0.5875,-0.5866,-0.585,-0.5844,-0.5827,-0.5818,-0.5806,-0.5773,-0.5755,-0.5773,-0.5741,-0.5759,-0.5761,-0.5765,-0.5766,-0.5837,-0.5761,-0.576,-0.576,-0.576,0,-0.6032,-0.6038,-0.599,-0.5991,-0.5996,-0.5958,-0.5964,-0.5944,-0.5922,-0.5918,-0.5881,-0.5878,-0.5835,-0.5827,-0.5801,-0.5802,-0.5798,-0.5785,-0.5779,-0.5789,-0.5791,-0.5784,-0.5781,-0.5762,-0.5762,-0.5761,-0.5761,0,-0.6101,-0.6068,-0.6067,-0.6031,-0.6022,-0.6028,-0.5996,-0.5996,-0.5972,-0.5968,-0.5964,-0.5927,-0.5916,-0.5882,-0.5862,-0.5845,-0.5854,-0.584,-0.5862,-0.5858,-0.5878,-0.5877,-0.5948,-0.5956,-0.5875,-0.5876,-0.5876,0,-0.6135,-0.6139,-0.6103,-0.6098,-0.6084,-0.6076,-0.6068,-0.603,-0.6023,-0.5996,-0.5999,-0.5985,-0.5972,-0.5957,-0.5927,-0.5912,-0.5899,-0.5925,-0.5896,-0.5907,-0.59,-0.59,-0.5901,-0.5931,-0.5932,-0.5933,-0.5934,0,-0.6201,-0.6185,-0.6174,-0.6158,-0.6149,-0.6134,-0.6117,-0.6115,-0.6073,-0.6067,-0.6055,-0.6046,-0.6026,-0.6013,-0.5993,-0.5976,-0.5948,-0.5943,-0.5947,-0.5958,-0.597,-0.5964,-0.588,-0.5942,-0.5941,-0.594,-0.594,-0.594,-0.6254,-0.6255,-0.6231,-0.622,-0.6203,-0.6189,-0.6186,-0.6162,-0.6152,-0.6134,-0.6112,-0.6104,-0.608,-0.605,-0.6036,-0.6028,-0.6013,-0.6018,-0.602,-0.6022,-0.6027,-0.5971,-0.6025,-0.6024,-0.6024,-0.6024,-0.6024,0,-0.6318,-0.63,-0.629,-0.6268,-0.626,-0.6235,-0.6215,-0.6209,-0.6203,-0.6183,-0.6171,-0.6158,-0.6145,-0.6115,-0.61,-0.61,-0.6087,-0.6097,-0.6097,-0.6094,-0.6041,-0.604,-0.6108,-0.6108,-0.6108,-0.6108,-0.6108,-0.6108,-0.635,-0.6351,-0.6333,-0.6326,-0.6307,-0.6299,-0.629,-0.6276,-0.626,-0.6248,-0.6237,-0.6218,-0.6194,-0.6177,-0.6164,-0.6155,-0.6152,-0.6166,-0.6154,-0.6105,-0.6097,-0.609,-0.6088,-0.6166,-0.6166,-0.6207,-0.6208,-0.6208]},{"header":{"parameterUnit":"m.s-1","parameterCategory":1,"la1":30.2991,"la2":30.254,"lo1":-89.0895,"lo2":-89.0444,"dy":0.0017,"dx":0.0017,"nx":28,"ny":28,"refTime":"2023-10-17T03:00:00:Z","depth":0,"parameterNumber":3,"parameterNumberName":"V-component_of_WINDS"},"data":[0,0,0,0,0,0,0,0,0,0,0,0,0,0,0,0,0,0,0,0,0,0,0,0,0,0,0,0,0,0,0,0,0,0,0,0,0,0,0,0,0,0,0,0,0,0,0,0,0,0,0,0,0,0,0,0,0,0,-0.4755,-0.4755,0,-0.478,-0.4781,-0.4781,-0.4782,-0.4782,-0.4781,-0.4781,-0.4808,-0.4809,-0.481,0,0,0,0,0,0,0,0,0,0,0,0,0,-0.4709,-0.471,-0.4755,-0.4755,-0.4756,-0.478,-0.4781,-0.4781,-0.4782,-0.4782,-0.4781,-0.4781,-0.4808,-0.4809,-0.481,0,0,0,0,0,0,0,0,0,0,0,0,0,-0.4731,-0.471,-0.4755,-0.4759,-0.476,-0.478,-0.4781,-0.4781,-0.4782,-0.4782,-0.4781,-0.4781,-0.4807,-0.4809,-0.481,-0.4829,0,0,-0.4815,-0.4816,0,0,0,0,0,0,0,0,-0.473,-0.4733,-0.4758,-0.4759,-0.476,-0.4778,-0.4774,-0.4797,-0.4782,-0.4774,-0.4781,-0.4781,-0.4798,-0.4801,-0.4806,-0.483,-0.4831,-0.4815,-0.4816,-0.4817,-0.4817,0,0,0,0,0,0,0,-0.4728,-0.4732,-0.4765,-0.4759,-0.4759,-0.476,-0.4763,-0.4779,-0.4788,-0.4774,-0.4775,-0.4777,-0.4799,-0.4805,-0.4807,-0.4832,-0.4815,-0.4816,-0.4817,-0.4818,-0.4873,-0.4874,0,0,0,0,0,0,-0.4726,-0.473,-0.4764,-0.4766,-0.4743,-0.4761,-0.4764,-0.4772,-0.4788,-0.479,-0.4778,-0.4777,-0.4803,-0.4805,-0.4808,-0.4832,-0.4817,-0.4818,-0.4819,-0.4873,-0.4874,-0.4874,0,0,0,0,0,0,-0.4725,-0.4729,-0.4763,-0.4748,-0.4753,-0.4763,-0.4772,-0.4773,-0.4779,-0.4791,-0.4793,-0.4782,-0.4802,-0.4806,-0.4824,-0.4833,-0.4819,-0.482,-0.4872,-0.4873,-0.4874,-0.4879,0,0,0,0,0,0,-0.4724,-0.4728,-0.4735,-0.4748,-0.4753,-0.4778,-0.4772,-0.4774,-0.4782,-0.4781,-0.4795,-0.4797,-0.4802,-0.4822,-0.4825,-0.4835,-0.4821,-0.4871,-0.4873,-0.4874,-0.4879,-0.488,-0.4882,0,0,0,0,0,-0.4722,-0.4736,-0.4735,-0.474,-0.4762,-0.4779,-0.4782,-0.4787,-0.4782,-0.479,-0.4797,-0.4797,-0.4831,-0.4824,-0.4828,-0.4838,-0.4871,-0.4872,-0.4874,-0.4878,-0.488,-0.4882,0,0,0,0,0,0,-0.4723,-0.4737,-0.4737,-0.4756,-0.4766,-0.4779,-0.4788,-0.4789,-0.4801,-0.48,-0.4806,-0.4809,-0.4828,-0.4834,-0.4826,-0.4857,-0.4851,-0.4853,-0.4852,-0.4855,-0.4856,-0.4855,-0.4823,0,0,0,0,0,-0.4726,-0.4738,-0.4749,-0.4764,-0.477,-0.4778,-0.4785,-0.4789,-0.48,-0.4804,-0.4813,-0.4824,-0.4838,-0.4846,-0.4859,-0.4879,-0.4883,-0.4888,-0.489,-0.4891,-0.4893,-0.4906,-0.4909,-0.4878,-0.4878,-0.4878,0,0,-0.4731,-0.474,-0.4747,-0.4765,-0.4773,-0.4787,-0.4782,-0.4795,-0.4806,-0.4806,-0.4824,-0.4831,-0.4844,-0.4864,-0.4873,-0.487,-0.4903,-0.4893,-0.4894,-0.4895,-0.4908,-0.4911,-0.4913,-0.4879,-0.4879,-0.4879,0,0,-0.4747,-0.4755,-0.4769,-0.4777,-0.479,-0.4796,-0.4799,-0.4812,-0.4817,-0.4835,-0.4836,-0.4848,-0.4871,-0.4881,-0.4888,-0.4909,-0.491,-0.4913,-0.4923,-0.4935,-0.4938,-0.494,-0.4949,-0.4952,-0.4915,-0.4915,-0.4915,0,-0.4752,-0.4771,-0.4776,-0.479,-0.4799,-0.48,-0.4815,-0.4823,-0.4839,-0.4845,-0.4842,-0.4871,-0.4879,-0.4902,-0.4907,-0.4913,-0.4918,-0.4912,-0.4937,-0.4939,-0.4941,-0.495,-0.4953,-0.4916,-0.4916,-0.4915,-0.4915,0,-0.4778,-0.4791,-0.4801,-0.4817,-0.4827,-0.4841,-0.4849,-0.4858,-0.486,-0.4866,-0.4885,-0.4896,-0.4911,-0.4917,-0.4919,-0.494,-0.4938,-0.4935,-0.4929,-0.4944,-0.4953,-0.4956,-0.4916,-0.4916,-0.4916,-0.4916,0,0,-0.4796,-0.4815,-0.4818,-0.4827,-0.4841,-0.4852,-0.4867,-0.4882,-0.4891,-0.4902,-0.4916,-0.4935,-0.4933,-0.4942,-0.4945,-0.4956,-0.4974,-0.4952,-0.4953,-0.4957,-0.5,-0.5003,-0.5007,-0.4974,-0.4974,-0.4975,-0.4999,0,-0.4815,-0.4841,-0.4846,-0.487,-0.4883,-0.4885,-0.4898,-0.4909,-0.4915,-0.4928,-0.4935,-0.495,-0.4945,-0.4951,-0.4961,-0.4969,-0.4983,-0.4967,-0.4988,-0.4989,-0.4986,-0.5011,-0.5014,-0.5036,-0.5002,-0.5003,-0.5003,0,-0.4841,-0.4853,-0.4878,-0.4892,-0.4898,-0.491,-0.4925,-0.4937,-0.495,-0.4954,-0.4964,-0.4966,-0.4983,-0.4975,-0.4999,-0.4988,-0.4997,-0.5002,-0.5003,-0.5007,-0.4998,-0.5016,-0.5043,-0.5047,-0.5008,-0.5008,-0.5008,0,-0.4853,-0.4876,-0.4895,-0.4901,-0.4918,-0.4926,-0.4934,-0.4946,-0.4955,-0.4969,-0.4975,-0.499,-0.4998,-0.501,-0.5017,-0.501,-0.5041,-0.5033,-0.5046,-0.5046,-0.5053,-0.5053,-0.5084,-0.5056,-0.5056,-0.5056,-0.5056,0,-0.4875,-0.4891,-0.4901,-0.4912,-0.493,-0.4936,-0.4954,-0.4961,-0.4972,-0.4986,-0.4987,-0.5,-0.5008,-0.5022,-0.5027,-0.5047,-0.505,-0.5055,-0.5056,-0.5056,-0.5055,-0.5062,-0.5062,-0.5057,-0.5057,-0.5056,-0.5056,0,-0.4893,-0.49,-0.492,-0.4935,-0.4939,-0.4951,-0.4964,-0.4976,-0.4982,-0.4999,-0.5004,-0.5014,-0.5031,-0.5038,-0.5059,-0.5062,-0.5086,-0.5085,-0.5082,-0.5082,-0.5096,-0.5095,-0.5133,-0.5139,-0.5106,-0.5106,-0.5106,0,-0.4907,-0.4919,-0.4935,-0.4944,-0.4952,-0.4966,-0.4976,-0.4982,-0.4993,-0.5009,-0.5019,-0.5036,-0.505,-0.5076,-0.5086,-0.5102,-0.5103,-0.5116,-0.5106,-0.5105,-0.5106,-0.5106,-0.5108,-0.5118,-0.5118,-0.5119,-0.5119,0,-0.4931,-0.4935,-0.4949,-0.4964,-0.4976,-0.4989,-0.5001,-0.5009,-0.5017,-0.5028,-0.5046,-0.5057,-0.5078,-0.5095,-0.5112,-0.512,-0.5122,-0.5122,-0.5126,-0.5126,-0.5124,-0.5127,-0.5088,-0.5121,-0.5121,-0.5121,-0.5121,-0.512,-0.4949,-0.496,-0.4974,-0.499,-0.5,-0.5012,-0.5024,-0.5032,-0.5047,-0.5065,-0.5067,-0.5087,-0.51,-0.5123,-0.5132,-0.5147,-0.5145,-0.515,-0.5152,-0.5154,-0.5155,-0.512,-0.515,-0.515,-0.515,-0.515,-0.515,0,-0.4975,-0.4984,-0.4999,-0.5016,-0.5029,-0.5029,-0.5043,-0.5054,-0.507,-0.5083,-0.5097,-0.5118,-0.5135,-0.5146,-0.5163,-0.5174,-0.5175,-0.5178,-0.5178,-0.5181,-0.5156,-0.5151,-0.5177,-0.5177,-0.5177,-0.5177,-0.5177,-0.5177,-0.4991,-0.5011,-0.5016,-0.5042,-0.5051,-0.5069,-0.5078,-0.5089,-0.5099,-0.5122,-0.5137,-0.5144,-0.5156,-0.5175,-0.5191,-0.5194,-0.5201,-0.5205,-0.5208,-0.5185,-0.5182,-0.518,-0.5176,-0.5206,-0.5206,-0.5232,-0.5232,-0.5232]}]]